Weather History for Lytton, BC

Change the Weather History Date:

Saturday, March 23, 2013

  Actual Average Record
Temperature  
Mean Temperature 37 °F -  
Max Temperature 49 °F 50 °F 64 °F (2006)
Min Temperature 25 °F 33 °F 25 °F (2013)
Degree Days  
Heating Degree Days 28    
Moisture  
Dew Point 23 °F    
Average Humidity 59    
Maximum Humidity 93    
Minimum Humidity 25    
Precipitation  
Precipitation 0.02 in - - ()
Sea Level Pressure  
Sea Level Pressure 30.36 in    
Wind  
Wind Speed 5 mph ()    
Max Wind Speed 17 mph    
Max Gust Speed 25 mph    
Visibility 9.0 miles    
Events      
Averages and records for this station are not official NWS values.
T = Trace of Precipitation, MM = Missing Value Source: Averaged Metar Reports

Daily Weather History Graph

Daily Weather History Graph

Search for Another Location

Airport:

Trip Planner

Search our weather history database for the weather conditions in past years. The results will help you decide how hot, cold, wet, or windy it might be!

Date:

Astronomy

Mar. 23, 2013 Rise Set
Actual Time 7:01 AM PDT 7:24 PM PDT
Civil Twilight 6:29 AM PDT 7:57 PM PDT
Nautical Twilight 5:50 AM PDT 8:35 PM PDT
Astronomical Twilight 5:10 AM PDT 9:16 PM PDT
Moon 3:39 PM PDT (3/23) 5:00 AM PDT (3/23)
Length of Visible Light 13h 28m
Length of Day
12h 23m
Waxing Gibbous, 86% of the Moon is Illuminated
Mar 23
Waxing Gibbous
Mar 27
Full
Apr 2
Last Quarter
Apr 10
New
Apr 18
First Quarter

Hourly Weather History & Observations

Time (PDT) Temp. Windchill Dew Point Humidity Pressure Visibility Wind Dir Wind Speed Gust Speed Precip Events Conditions
12:00 AM 32.0 °F - 26.6 °F 80% 30.39 in 9.0 mi SSE 2.3 mph - N/A   Clear
1:00 AM 32.0 °F 28.7 °F 24.8 °F 75% 30.40 in 9.0 mi SSE 3.5 mph - N/A   Clear
2:00 AM 30 °F - 25 °F 73% 30.41 in 9 mi SSE 4.6 mph - -  
2:00 AM 30.2 °F 25.4 °F 24.8 °F 80% 30.41 in 9.0 mi SSE 4.6 mph - N/A   Clear
3:00 AM 28.4 °F - 24.8 °F 86% 30.42 in 9.0 mi North 2.3 mph - N/A   Clear
4:00 AM 26.6 °F - 23.0 °F 86% 30.43 in 9.0 mi Calm Calm - N/A   Clear
5:00 AM 27 °F - 25 °F 87% 30.43 in 9 mi Calm Calm - -  
5:00 AM 26.6 °F - 24.8 °F 93% 30.43 in 9.0 mi Calm Calm - N/A   Scattered Clouds
6:00 AM 26.6 °F - 24.8 °F 93% 30.44 in 9.0 mi Calm Calm - N/A   Mostly Cloudy
7:00 AM 26.6 °F 22.6 °F 23.0 °F 86% 30.44 in 9.0 mi NNE 3.5 mph - N/A   Partly Cloudy
8:00 AM 27 °F - 23 °F 80% 30.44 in 9 mi NNE 2.3 mph - -  
8:00 AM 26.6 °F - 23.0 °F 86% 30.44 in 9.0 mi North 2.3 mph - N/A   Scattered Clouds
9:00 AM 28.4 °F - 23.0 °F 80% 30.44 in 9.0 mi North 2.3 mph - N/A   Scattered Clouds
10:00 AM 33.8 °F - 19.4 °F 56% 30.43 in 9.0 mi North 2.3 mph - N/A   Clear
11:00 AM 38 °F - 22 °F 40% 30.40 in 9 mi Calm Calm - -  
11:00 AM 37.4 °F - 23.0 °F 56% 30.40 in 9.0 mi Calm Calm - N/A   Clear
12:00 PM 42.8 °F 38.0 °F 23.0 °F 46% 30.37 in 9.0 mi South 8.1 mph - N/A   Clear
1:00 PM 46.4 °F 41.1 °F 23.0 °F 40% 30.34 in 9.0 mi South 11.5 mph - N/A   Clear
2:00 PM 47 °F - 23 °F 26% 30.32 in 9 mi South 16.1 mph - -  
2:00 PM 48.2 °F - 23.0 °F 37% 30.32 in 9.0 mi South 16.1 mph - N/A   Clear
3:00 PM 50.0 °F - 21.2 °F 32% 30.30 in 9.0 mi South 17.3 mph - N/A   Partly Cloudy
4:00 PM 48.2 °F - 21.2 °F 34% 30.28 in 9.0 mi South 17.3 mph - N/A   Clear
5:00 PM 46 °F - 22 °F 25% 30.28 in 9 mi SSW 13.8 mph - -  
5:00 PM 46.4 °F 40.4 °F 21.2 °F 37% 30.28 in 9.0 mi South 13.8 mph 19.6 mph N/A   Partly Cloudy
6:00 PM 44.6 °F 38.4 °F 21.2 °F 39% 30.27 in 9.0 mi South 12.7 mph 18.4 mph N/A   Clear
7:00 PM 42.8 °F 35.4 °F 23.0 °F 46% 30.28 in 9.0 mi South 15.0 mph 25.3 mph N/A   Clear
8:00 PM 42 °F - 22 °F 33% 30.29 in 9 mi South 16.1 mph - -  
8:00 PM 42.8 °F 34.8 °F 23.0 °F 46% 30.29 in 9.0 mi South 17.3 mph 23.0 mph N/A   Clear
9:00 PM 41.0 °F 34.7 °F 23.0 °F 49% 30.30 in 9.0 mi SSW 10.4 mph 21.9 mph N/A   Clear
10:00 PM 39.2 °F 31.2 °F 23.0 °F 52% 30.32 in 9.0 mi South 13.8 mph 19.6 mph N/A   Clear
11:00 PM 38 °F - 24 °F 44% 30.33 in 9 mi South 11.5 mph - -  
11:00 PM 37.4 °F 30.3 °F 24.8 °F 60% 30.33 in 9.0 mi South 10.4 mph - N/A   Clear